Location: Dunedin
(45.8670°S, 170.5000°E)
Time: 16:17:04
(UTC+13:00)

ISS - Pass Details

Date: 02 February 2019
Orbit: 403 x 411 km, 51.6° (Epoch: 21 February)

Event Time Altitude Azimuth Distance (km) Brightness Sun altitude
Exits shadow 04:30:02 30° 25° (NNE) 784 -2.6 -17.6°
Maximum altitude 04:30:25 31° 39° (NE) 768 -2.6 -17.6°
Drops below altitude 10° 04:33:25 10° 103° (ESE) 1,500 -0.2 -17.2°
Sets 04:35:40 0° 113° (ESE) 2,366 1.2 -17.0°
